Location: Unspecified
(48.5670°N, 0.0000°E)
Time: 13:31:47
(UTC+00:00)

Tiros 1 - Visible Passes

Search period start: 22 October 2020 00:00
Search period end: 01 November 2020 00:00
Orbit: 630 x 664 km, 48.4° (Epoch: 21 October)

Date Brightness Start Highest point End Pass type
(mag) Time Alt. Az. Time Alt. Az. Time Alt. Az.
22 Oct 9.5 04:57:38 10° S 05:00:49 19° SE 05:04:00 10° E visible
23 Oct 8.6 05:22:19 10° SSW 05:26:27 33° SSE 05:30:35 10° E visible
24 Oct 9.4 04:08:29 13° S 04:10:45 17° SE 04:13:46 10° E visible
24 Oct 7.8 05:47:44 10° SW 05:52:14 54° SSE 05:56:45 10° E visible
25 Oct 8.6 04:33:55 19° SSW 04:36:21 31° SSE 04:40:25 10° E visible
26 Oct 9.6 03:21:31 15° SE 03:21:31 15° SE 03:23:30 10° E visible
26 Oct 7.7 04:59:12 20° SW 05:02:08 51° SSE 05:06:37 10° E visible
27 Oct 8.6 03:46:43 29° SE 03:46:43 29° SE 03:50:16 10° E visible
27 Oct 7.2 05:24:24 16° WSW 05:28:04 74° SSE 05:32:40 10° E visible
28 Oct 7.6 04:11:51 48° SSE 04:12:02 49° SSE 04:16:29 10° E visible
28 Oct 7.1 05:49:31 10° W 05:54:04 88° S 05:58:43 10° E visible
29 Oct 9.9 02:59:14 14° E 02:59:14 14° E 03:00:06 10° E visible
29 Oct 7.1 04:36:54 51° SW 04:37:56 71° SSE 04:42:33 10° E visible
30 Oct 9.1 03:24:14 25° E 03:24:14 25° E 03:26:21 10° E visible
30 Oct 7.0 05:01:54 33° W 05:03:57 87° S 05:08:35 10° E visible
31 Oct 8.2 03:49:13 43° E 03:49:13 43° E 03:52:25 10° E visible
31 Oct 7.1 05:26:53 21° W 05:29:59 89° SSW 05:34:38 10° E visible
